Location: Unspecified
(42.3650°N, 71.1030°W)
Time: 15:59:04
(UTC+00:00)

Transit 2A - Pass Details

Date: 30 June 2024
Orbit: 591 x 960 km, 66.7° (Epoch: 16 July)

Event Time Altitude Azimuth Distance (km) Brightness Sun altitude
Rises 00:55:59 0° 337° (NNW) 3,518 10.7 -5.4°
Reaches altitude 10° 00:59:18 10° 355° (N) 2,626 9.5 -5.9°
Maximum altitude 01:03:32 19° 39° (NE) 2,105 8.3 -6.5°
Drops below altitude 10° 01:07:50 10° 82° (E) 2,691 8.4 -7.1°
Enters shadow 01:10:28 - 96° (E) 3,395 8.8 -7.5°
